This is the latest recevied weather packets stored in our database for station/object F4ELU-13. If no packets are shown the sender has not sent any weather packets the latest 10 day(s).
| Time | Temp. | Humidity | Pressure | Rain* | Wind** | Luminosity | Snow |
|---|---|---|---|---|---|---|---|
| 1777644003 | 22.78° C | 68% | 1020.8 hPa | 0 mm | - | - | - |
| 1777643643 | 22.78° C | 67% | 1020.8 hPa | 0 mm | - | - | - |
| 1777643103 | 22.78° C | 62% | 1020.9 hPa | 0 mm | - | - | - |
| 1777642563 | 22.78° C | 59% | 1020.8 hPa | 0 mm | - | - | - |
| 1777642024 | 24.44° C | 58% | 1020.9 hPa | 0 mm | - | - | - |
| 1777641483 | 22.78° C | 59% | 1021 hPa | 0 mm | - | - | - |
| 1777640943 | 23.89° C | 58% | 1021 hPa | 0 mm | - | - | - |
| 1777640403 | 24.44° C | 59% | 1021.2 hPa | 0 mm | - | - | - |
| 1777640043 | 23.89° C | 58% | 1021.2 hPa | 0 mm | - | - | - |
| 1777639503 | 23.33° C | 60% | 1021.3 hPa | 0 mm | - | - | - |
| 1777638963 | 21.67° C | 64% | 1021.4 hPa | 0 mm | - | - | - |
| 1777638423 | 21.67° C | 66% | 1021.4 hPa | 0 mm | - | - | - |
| 1777637883 | 22.22° C | 63% | 1021.4 hPa | 0 mm | - | - | - |
| 1777637343 | 22.78° C | 62% | 1021.5 hPa | 0 mm | - | - | - |
| 1777636803 | 22.22° C | 62% | 1021.6 hPa | 0 mm | - | - | - |
| 1777636443 | 22.78° C | 62% | 1021.5 hPa | 0 mm | - | - | - |
| 1777635903 | 22.78° C | 59% | 1021.6 hPa | 0 mm | - | - | - |
| 1777635363 | 22.78° C | 66% | 1021.6 hPa | 0 mm | - | - | - |
| 1777634823 | 22.22° C | 63% | 1021.6 hPa | 0 mm | - | - | - |
| 1777634283 | 22.22° C | 64% | 1021.8 hPa | 0 mm | - | - | - |
| 1777633743 | 21.67° C | 65% | 1021.8 hPa | 0 mm | - | - | - |
| 1777633204 | 22.78° C | 65% | 1021.8 hPa | 0 mm | - | - | - |
| 1777632843 | 22.78° C | 64% | 1021.9 hPa | 0 mm | - | - | - |
| 1777632303 | 22.22° C | 67% | 1022 hPa | 0 mm | - | - | - |
| 1777631764 | 22.22° C | 63% | 1022.2 hPa | 0 mm | - | - | - |
* Rain latest hour (hover to see other rain measurements)
** Current wind speed in m/s (hover to see current wind gust speed)